User: anonymous   Login
Location: Unspecified
(0.0000°N, 0.0000°E)
Time: 09:00:38
(UTC+00:00)
Language:

BREEZE-M R/B - Orbit

View from above orbital plane
View from above orbital plane
View from above satellite
View from above satellite

Ground track
Ground track

The orbit data is extracted from the following two-line orbital elements,

1 39173U 13026B   20093.51493851 -.00000356 +00000-0 +00000-0 0  9990
2 39173 024.4555 160.6271 7479143 213.3148 062.0229 01.10514638027212
Epoch (UTC): 02 April 2020 12:21:30
Eccentricity: 0.7479143
inclination: 24.4555°
perigee height: 3583 km
apogee height: 62694 km
right ascension of ascending node: 160.6271°
argument of perigee: 213.3148°
revolutions per day: 1.10514638
mean anomaly at epoch: 62.0229°
orbit number at epoch: 2721

The dashed part of the orbit path shows where the satellite is in the earth's shadow,  

DLR